Theta_e
286 284 283 282 282 281 281 281 281 281 281 281 281 281 281 281 281 281 281 280 281 281
284 282 281 281 281 280 280 279 280 280 280 280 280 280 280 280 280 280 280 281 281 280
282 281 280 280 279 279 279 279 279 279 279 279 279 279 279 279 279 278 279 279 278 279
280 279 279 278 278 278 278 278 277 277 277 277 277 277 277 277 277 276 276 276 276 277
279 278 277 277 277 277 277 277 277 276 276 276 275 275 275 274 275 274 273 274 274 274
277 276 276 276 276 276 276 276 276 275 274 274 274 274 274 273 273 273 273 273 273 272
276 275 275 275 275 274 275 274 274 274 273 273 273 272 273 272 272 272 273 273 274 274
274 274 274 273 274 273 273 273 273 272 272 272 272 272 272 272 272 273 273 274 274 275
273 272 272 272 272 271 271 271 271 271 271 271 271 272 274 274 273 273 272 272 273 274
271 270 270 270 269 269 270 270 270 270 270 269 270 272 274 274 273 273 273 273 273 273
269 269 268 268 268 268 269 269 269 269 268 269 270 272 273 274 273 273 273 273 274 273
268 267 267 265 267 268 268 268 268 268 268 267 267 271 273 273 272 272 272 273 274 274
267 266 265 266 266 267 267 267 267 267 267 267 267 271 273 273 273 271 272 273 274 275
266 265 265 265 266 265 265 265 265 265 268 269 270 270 273 274 273 273 272 272 271 273
Wind_Speed
11 7 6 5 5 6 7 7 9 10 10 11 12 12 13 12 12 15 14 19 16 14
9 8 6 6 7 7 8 8 11 11 11 11 12 13 15 12 16 16 16 17 18 16
9 8 7 7 8 9 9 10 11 11 11 11 13 14 15 15 16 17 14 13 19 18
9 7 7 7 7 8 9 10 11 10 11 12 14 15 16 17 19 19 19 19 19 21
8 7 6 6 6 7 10 9 10 11 12 13 14 15 17 18 17 19 21 21 21 21
8 6 6 6 7 7 8 9 10 11 12 14 15 16 17 18 19 20 20 21 21 22
8 7 5 5 6 7 8 10 11 12 13 14 15 16 17 18 19 20 20 21 21 21
8 6 4 4 6 7 9 9 11 12 13 14 14 12 16 19 21 21 22 21 21 21
8 6 4 4 6 8 9 9 10 11 13 15 11 21 26 25 19 21 22 22 20 20
8 6 5 4 6 7 8 8 10 12 12 14 16 23 27 29 19 21 20 21 20 20
8 6 4 4 5 6 7 8 10 11 12 14 14 26 28 30 21 20 22 21 21 22
8 7 5 4 5 5 6 8 9 11 13 15 16 25 29 27 19 19 22 21 21 22
9 7 5 5 4 4 6 8 7 12 14 17 16 23 28 26 15 20 17 20 21 27
7 6 5 3 3 4 5 7 9 11 13 14 15 16 28 30 18 16 18 16 16 15
Wind_Direction
204 209 217 228 241 249 251 265 274 271 270 274 278 284 285 283 279 276 271 270 265 264
192 203 213 228 241 248 256 260 267 273 277 284 289 285 284 279 276 273 272 269 268 263
184 196 212 225 237 249 262 268 271 279 286 291 289 288 283 281 277 276 272 272 272 269
182 196 213 230 244 259 274 273 277 297 300 295 290 286 283 279 279 277 277 274 272 271
183 198 219 236 253 263 273 292 305 305 295 290 286 284 282 283 282 283 281 281 278 274
185 196 220 243 263 284 295 297 295 291 289 288 287 288 285 285 287 285 283 282 278 274
178 193 217 260 279 287 291 290 291 291 291 291 294 291 292 294 293 288 283 279 274 272
170 177 202 248 272 285 287 289 291 296 296 294 293 294 300 298 296 292 288 283 278 274
164 161 203 251 273 282 287 292 297 297 298 300 296 301 302 301 297 296 291 287 282 278
160 174 201 239 264 281 292 300 296 295 300 304 302 304 307 306 296 293 295 292 290 284
167 178 202 244 266 279 291 296 298 300 303 302 304 308 309 304 302 294 288 290 286 284
168 171 190 232 261 281 294 300 302 306 306 302 298 304 306 313 304 293 296 289 284 280
163 171 184 219 263 294 289 297 314 312 306 298 294 302 313 314 306 299 300 294 289 288
158 170 185 212 277 290 306 321 315 307 303 298 308 309 314 318 311 308 305 309 302 294